Погода в Алексеевке

Россия / Белгородская область     50°45′59″N   37°02′14″E
темп.,
°C
ветер,
м/с
пор.,
м/с
влажн.,
%
обл.,
%
осадки,
мм/ч
давл.,
гПа
погр.,
м
17 мая, пн
пн1700:00+17всв499398 0.2 1008152
03:00+16в5148098 0.2 1007267
06:00+15вюв6157557 0.0 1006269
09:00+20вюв717615 0.0 1006698
12:00+24вюв817562 0.0 10051435
15:00+24юв711598 0.0 10051372
18:00+22юв61269100 0.0 1004575
21:00+18юв378834 0.0 1006120
18 мая, вт
вт1800:00+17ююв41084100 0.0 1006258
03:00+15ююв239390 0.0 100642
06:00+15юв3594100 0.1 1006155
09:00+18ююв588697 0.5 1006624
12:00+19ю5676100 0.2 1006924
15:00+19ююв5771100 0.6 10051112
18:00+18ююв5879100 1.8 1005592
21:00+15юв3688100 2.0 100693
19 мая, ср
ср1900:00+13ююв3793100 0.0 1006136
03:00+12ююв359572 0.0 1006109
06:00+13юв389469 0.0 1006262
09:00+16ююв5881100 0.0 1005823
12:00+17ююв5779100 0.5 1005908
15:00+14ю4794100 2.4 1006415
18:00+13вюв2495100 1.1 1007210
21:00+13юв4794100 1.6 1007184
20 мая, чт
чт2000:00+12ююв3792100 0.0 1006155
03:00+11ю3795100 0.1 1006171
06:00+10ю379757 0.4 1007250
09:00+15ююз568353 1.1 1007744
12:00+15юз7885100 1.0 1008869
15:00+15зюз588187 1.1 1010870
18:00+16юз487692 0.1 10101066
21:00+12зюз3691100 0.2 1012102
21 мая, пт
пт2100:00+12зюз238999 0.0 101363
03:00+12ссз1192100 0.1 101410
06:00+12св2293100 0.4 101587
09:00+15всв3382100 0.6 1015423
12:00+19в2366100 0.0 10151095
15:00+21вюв4558100 0.1 10151557
18:00+20в4777100 0.2 1014390
21:00+17всв4990100 0.4 1014188